Location: Vancouver
(49.2500°N, 123.1330°W)
Time: 09:55:37
(UTC-07:00)

S-56A Canister/Altair - Visible Passes

Search period start: 29 August 2015 00:00
Search period end: 08 September 2015 00:00
Orbit: 636 x 2499 km, 38.9° (Epoch: 26 August)

Date Brightness Start Highest point End Pass type
(mag) Time Alt. Az. Time Alt. Az. Time Alt. Az.
29 Aug 10.1 00:56:26 10° W 01:09:01 42° SW 01:09:01 42° SW visible
29 Aug 11.2 03:04:43 10° W 03:06:24 13° W 03:06:24 13° W visible
29 Aug 10.3 20:13:29 10° SW 20:26:04 46° SSE 20:39:56 10° E visible
29 Aug 10.0 22:17:31 10° WSW 22:31:40 56° S 22:40:15 28° ESE visible
30 Aug 10.0 00:23:15 10° W 00:37:09 45° SSW 00:37:38 45° SSW visible
30 Aug 11.0 02:30:56 10° W 02:35:01 17° WSW 02:35:01 17° WSW visible
30 Aug 10.1 21:44:44 10° WSW 21:58:34 56° S 22:08:54 22° ESE visible
30 Aug 10.0 23:50:09 10° W 00:04:12 48° SSW 00:06:17 45° S visible
31 Aug 10.9 01:57:20 10° W 02:03:40 22° WSW 02:03:40 22° WSW visible
31 Aug 10.1 21:12:02 10° WSW 21:25:28 56° S 21:37:35 16° ESE visible
31 Aug 10.0 23:17:08 10° W 23:31:11 50° SSW 23:34:58 43° SSE visible
01 Sep 10.7 01:23:52 10° W 01:32:22 27° WSW 01:32:22 27° WSW visible
01 Sep 10.2 20:39:27 10° WSW 20:52:24 55° S 21:06:18 11° ESE visible
01 Sep 10.1 22:44:12 10° W 22:58:08 52° SSW 23:03:43 38° SSE visible
02 Sep 10.5 00:50:32 10° W 01:01:06 32° SW 01:01:06 32° SW visible
02 Sep 10.2 20:06:57 10° WSW 20:19:21 53° S 20:33:46 10° E visible
02 Sep 10.1 22:11:22 10° W 22:25:04 53° S 22:32:28 32° SE visible
03 Sep 10.4 00:17:20 10° W 00:29:52 35° SW 00:29:52 35° SW visible
03 Sep 10.2 21:38:38 10° W 21:51:59 54° S 22:01:16 26° SE visible
03 Sep 10.3 23:44:13 10° W 23:57:17 38° SSW 23:58:40 37° SSW visible
04 Sep 11.3 01:53:10 10° W 01:56:04 14° WSW 01:56:04 14° WSW visible
04 Sep 10.2 21:05:59 10° WSW 21:18:54 55° S 21:30:07 19° ESE visible
04 Sep 10.3 23:11:13 10° W 23:24:20 41° SSW 23:27:31 37° S visible
05 Sep 11.1 01:19:13 10° W 01:24:55 17° WSW 01:24:55 17° WSW visible
05 Sep 10.2 20:33:25 10° WSW 20:45:51 55° S 20:58:59 14° ESE visible
05 Sep 10.3 22:38:20 10° W 22:51:21 43° SSW 22:56:24 34° SSE visible
06 Sep 11.0 00:45:36 10° W 00:53:48 21° SW 00:53:48 21° SW visible
06 Sep 10.2 20:00:57 10° WSW 20:12:50 55° S 20:27:17 10° ESE visible
06 Sep 10.3 22:05:32 10° W 22:18:21 45° SSW 22:25:19 30° SSE visible
07 Sep 10.9 00:12:11 10° W 00:22:44 24° SW 00:22:44 24° SW visible
07 Sep 10.3 21:32:51 10° W 21:45:21 47° SSW 21:54:18 24° SE visible
